(30731) = 1981 EK2 = 1999 CX74

Discovered at Siding Spring on 1981-03-02 by S. J. Bus.

Orbit

Orbit type: Main Belt

Note: WebGL enabled browser required.

epoch2023-09-13.0
epoch JD2460200.5
perihelion date2023-08-28.70073
perihelion JD2460185.20073
argument of perihelion (°)29.15762
ascending node (°)260.50455
inclination (°)7.90443
eccentricity0.1281427
perihelion distance (AU)2.4027912
Tisserand w.r.t. Jupiter3.3
ΔV w.r.t. Earth (km/sec)10.0
semimajor axis (AU)2.7559455
mean anomaly (°)3.29586
mean daily motion (°/day)0.21542590
aphelion distance (AU)3.109
period (years)4.58
P-vector [x]0.33190800
P-vector [y]-0.88993762
P-vector [z]-0.31280684
Q-vector [x]0.93350936
Q-vector [y]0.26219342
Q-vector [z]0.24457083
absolute magnitude15.01
phase slope0.15
uncertainty0
referenceMPEC 2023-X132
observations used1078
oppositions21
arc length (days)15472
first opposition used1981
last opposition used2023
residual rms (arc-secs)0.70
perturbers coarse indicatorM-v
perturbers precise indicator003Ek
first observation date used1981-02-02.0
last observation date used2023-06-14.0
computer nameMPCLINUX
JD of orbit computation2456966.920951
perihelion JD uncertainty (days)9.4729E-05
argument of perihelion uncertainty (°)4.4962E-05
ascending node uncertainty (°)3.9411E-05
inclination uncertainty (°)5.2453E-06
eccentricity uncertainty 4.7940E-08
perihelion distance uncertainty (AU)1.3365E-07
Minimum Orbit Intersection Distances (in AU)
for orbit epoch: 2460200.5, reference: E2023-XD2
Mercury1.95275
Venus1.67965
Earth1.38937
Mars0.95983
Jupiter2.03702
Saturn5.95963
Uranus15.4927
Neptune26.9292

Observations

1114 total observations over interval: 1981 02 02.66718 – 2023 06 14.270711
These data are available for download (format description).

Date (UT) J2000 RA J2000 Dec Magn Location Ref
1981 02 02.66718 11 58 42.49 -11 19 49.2   413 – Siding Spring Observatory MPC 9624
1981 03 02.52074 11 44 23.16 -11 08 48.0 19.0 V 413 – Siding Spring Observatory MPC 7087
1981 03 02.56588 11 44 21.01 -11 08 42.0   413 – Siding Spring Observatory MPC 7087
1981 03 07.55280 11 40 26.26 -10 51 11.0   413 – Siding Spring Observatory MPC 7087
1981 03 07.59447 11 40 24.29 -10 51 02.4   413 – Siding Spring Observatory MPC 7087
1981 03 10.53941 11 37 59.88 -10 38 40.6   413 – Siding Spring Observatory MPC 7087
1981 03 10.58108 11 37 57.66 -10 38 29.6   413 – Siding Spring Observatory MPC 7087
1981 03 12.52945 11 36 20.59 -10 29 31.9   413 – Siding Spring Observatory MPC 7087
1981 04 09.60259 11 15 07.88 -07 41 29.4 19.0 V 413 – Siding Spring Observatory MPC 7087
1981 04 09.63731 11 15 06.88 -07 41 18.6   413 – Siding Spring Observatory MPC 7088
1981 04 29.43724 11 08 12.70 -05 49 51.8   413 – Siding Spring Observatory MPC 10242
1999 02 12.36528 10 01 21.48 +00 31 27.1 19.4   704 – Lincoln Laboratory ETS, New Mexico MPS 3964
1999 02 12.38283 10 01 20.58 +00 31 32.1 19.5   704 – Lincoln Laboratory ETS, New Mexico MPS 3964
1999 02 12.40029 10 01 19.72 +00 31 36.5 19.9   704 – Lincoln Laboratory ETS, New Mexico MPS 3964
1999 02 16.29841 09 57 58.31 +00 44 16.8 18.8   704 – Lincoln Laboratory ETS, New Mexico MPS 3964
1999 02 16.31937 09 57 57.24 +00 44 20.8 19.4   704 – Lincoln Laboratory ETS, New Mexico MPS 3964
1999 02 16.34027 09 57 56.02 +00 44 27.1 20.0   704 – Lincoln Laboratory ETS, New Mexico MPS 3964
2000 05 28.31458 17 02 15.80 -24 40 28.0 17.3   704 – Lincoln Laboratory ETS, New Mexico MPS 15022
2000 05 28.32792 17 02 15.09 -24 40 23.9 17.8   704 – Lincoln Laboratory ETS, New Mexico MPS 15022
2000 05 28.34129 17 02 14.37 -24 40 19.4 18.0   704 – Lincoln Laboratory ETS, New Mexico MPS 15022
2000 05 29.33516 17 01 21.29 -24 35 34.8 17.4   704 – Lincoln Laboratory ETS, New Mexico MPS 15022
2000 05 29.34851 17 01 20.52 -24 35 31.3 17.6   704 – Lincoln Laboratory ETS, New Mexico MPS 15022
2000 05 29.36188 17 01 19.72 -24 35 27.1 17.7   704 – Lincoln Laboratory ETS, New Mexico MPS 15022
2000 05 29.37546 17 01 19.05 -24 35 23.2 17.7   704 – Lincoln Laboratory ETS, New Mexico MPS 15022
2000 06 07.29606 16 53 08.44 -23 50 06.4 18.0   704 – Lincoln Laboratory ETS, New Mexico MPS 15022
2000 06 07.30918 16 53 07.69 -23 50 01.6 18.3   704 – Lincoln Laboratory ETS, New Mexico MPS 15022
2000 06 07.32233 16 53 06.92 -23 49 57.4 17.8   704 – Lincoln Laboratory ETS, New Mexico MPS 15022
2000 06 07.34891 16 53 05.37 -23 49 48.6 18.7   704 – Lincoln Laboratory ETS, New Mexico MPS 15022
2000 06 24.39871 16 38 45.20 -22 18 26.1 18.7   608 – Haleakala-AMOS MPS 16338
2000 06 24.40966 16 38 44.71 -22 18 22.8 19.2   608 – Haleakala-AMOS MPS 16338
2000 06 24.42022 16 38 44.24 -22 18 19.4 19.9   608 – Haleakala-AMOS MPS 16338
2001 08 28.33506 01 49 45.54 +21 40 41.8 19.0 R 699 – Lowell Observatory-LONEOS MPS 33944
2001 08 28.36166 01 49 45.48 +21 40 46.0   699 – Lowell Observatory-LONEOS MPS 33944
2001 08 28.38830 01 49 45.46 +21 40 48.7   699 – Lowell Observatory-LONEOS MPS 33944
2001 08 28.41502 01 49 45.34 +21 40 53.2   699 – Lowell Observatory-LONEOS MPS 33944
2001 09 25.32609 01 39 35.26 +21 30 39.0 18.6   704 – Lincoln Laboratory ETS, New Mexico MPS 35284
2001 09 25.34110 01 39 34.61 +21 30 36.3 18.9   704 – Lincoln Laboratory ETS, New Mexico MPS 35284
2001 09 25.35610 01 39 33.99 +21 30 33.1 19.4   704 – Lincoln Laboratory ETS, New Mexico MPS 35284
2001 09 25.37108 01 39 33.34 +21 30 30.3 19.0   704 – Lincoln Laboratory ETS, New Mexico MPS 35284
2001 09 25.38606 01 39 32.72 +21 30 27.7 19.3   704 – Lincoln Laboratory ETS, New Mexico MPS 35284
2001 10 13.36700 01 25 16.77 +20 04 57.6 18.7   644 – Palomar Mountain/NEAT MPS 37352
2001 10 13.38727 01 25 15.68 +20 04 50.1 18.5   644 – Palomar Mountain/NEAT MPS 37352
2001 10 13.40752 01 25 14.62 +20 04 42.3 18.8   644 – Palomar Mountain/NEAT MPS 37352
2001 10 15.24339 01 23 40.40 +19 53 02.9 18.8   704 – Lincoln Laboratory ETS, New Mexico MPS 37352
2001 10 15.25954 01 23 39.55 +19 52 56.4 19.0   704 – Lincoln Laboratory ETS, New Mexico MPS 37352
2001 10 15.27557 01 23 38.74 +19 52 49.5 18.6   704 – Lincoln Laboratory ETS, New Mexico MPS 37352
2001 10 15.29137 01 23 37.88 +19 52 44.1 18.6   704 – Lincoln Laboratory ETS, New Mexico MPS 37352
2001 10 15.30743 01 23 37.02 +19 52 37.7 18.5   704 – Lincoln Laboratory ETS, New Mexico MPS 37352
2001 10 17.24021 01 21 57.90 +19 39 53.8 18.1   704 – Lincoln Laboratory ETS, New Mexico MPS 38759
2001 10 17.27203 01 21 56.20 +19 39 40.5 18.4   704 – Lincoln Laboratory ETS, New Mexico MPS 38759
2001 10 17.28773 01 21 55.33 +19 39 34.5 18.8   704 – Lincoln Laboratory ETS, New Mexico MPS 38759
2001 10 17.30367 01 21 54.52 +19 39 28.1 18.5   704 – Lincoln Laboratory ETS, New Mexico MPS 38759
2001 10 18.26439 01 21 05.51 +19 32 59.5 19.8   704 – Lincoln Laboratory ETS, New Mexico MPS 38759
2001 10 18.28093 01 21 04.67 +19 32 53.4 18.9   704 – Lincoln Laboratory ETS, New Mexico MPS 38759
2001 10 18.29694 01 21 03.76 +19 32 44.7 19.4   704 – Lincoln Laboratory ETS, New Mexico MPS 38759
2001 10 18.31342 01 21 02.93 +19 32 38.1 18.7   704 – Lincoln Laboratory ETS, New Mexico MPS 38759
2001 10 20.24106 01 19 25.46 +19 19 20.4 18.6   704 – Lincoln Laboratory ETS, New Mexico MPS 38759
2001 10 20.25744 01 19 24.64 +19 19 13.5 18.7   704 – Lincoln Laboratory ETS, New Mexico MPS 38759
2001 10 20.27382 01 19 23.81 +19 19 06.6 18.6   704 – Lincoln Laboratory ETS, New Mexico MPS 38759
2001 10 20.29039 01 19 22.92 +19 18 59.5 18.6   704 – Lincoln Laboratory ETS, New Mexico MPS 38759
2001 10 20.30681 01 19 22.08 +19 18 53.1 18.9   704 – Lincoln Laboratory ETS, New Mexico MPS 38759
2001 10 20.44367 01 19 15.07 +19 17 55.9 18.2   644 – Palomar Mountain/NEAT MPS 38759
2001 10 20.46484 01 19 13.99 +19 17 47.0 18.2   644 – Palomar Mountain/NEAT MPS 38759
2001 10 20.48616 01 19 12.89 +19 17 37.8 18.2   644 – Palomar Mountain/NEAT MPS 38759
2001 10 28.26221 01 12 59.91 +18 21 13.2 18.4   704 – Lincoln Laboratory ETS, New Mexico MPS 38759
2001 10 28.27845 01 12 59.06 +18 21 06.1 18.5   704 – Lincoln Laboratory ETS, New Mexico MPS 38759
2001 10 28.29470 01 12 58.37 +18 20 57.8 18.8   704 – Lincoln Laboratory ETS, New Mexico MPS 38759
2001 11 10.30025 01 04 36.30 +16 45 42.1 18.7   704 – Lincoln Laboratory ETS, New Mexico MPS 40090
2001 11 10.31538 01 04 35.83 +16 45 35.9 18.5   704 – Lincoln Laboratory ETS, New Mexico MPS 40090
2001 11 10.32980 01 04 35.37 +16 45 29.8 19.1   704 – Lincoln Laboratory ETS, New Mexico MPS 40090
2001 11 10.34403 01 04 34.92 +16 45 23.7 18.9   704 – Lincoln Laboratory ETS, New Mexico MPS 40090
2001 11 10.35827 01 04 34.47 +16 45 16.6 18.7   704 – Lincoln Laboratory ETS, New Mexico MPS 40090
2001 11 11.17449 01 04 09.99 +16 39 35.4 18.5 R 699 – Lowell Observatory-LONEOS MPS 41537
2001 11 11.19813 01 04 09.24 +16 39 25.2   699 – Lowell Observatory-LONEOS MPS 41537
2001 11 11.22155 01 04 08.53 +16 39 15.7   699 – Lowell Observatory-LONEOS MPS 41537
2001 11 11.24496 01 04 07.78 +16 39 05.8   699 – Lowell Observatory-LONEOS MPS 41537
2001 11 17.21464 01 01 35.56 +15 59 06.1 18.9   704 – Lincoln Laboratory ETS, New Mexico MPS 41537
2001 11 17.22899 01 01 35.27 +15 59 00.9 19.0   704 – Lincoln Laboratory ETS, New Mexico MPS 41537
2001 11 17.24336 01 01 34.94 +15 58 55.4 19.0   704 – Lincoln Laboratory ETS, New Mexico MPS 41537
2001 11 17.25773 01 01 34.58 +15 58 50.4 19.2   704 – Lincoln Laboratory ETS, New Mexico MPS 41537
2001 11 17.27210 01 01 34.26 +15 58 44.6 19.0   704 – Lincoln Laboratory ETS, New Mexico MPS 41537
2001 11 17.27336 01 01 34.31 +15 58 44.3 18.7   644 – Palomar Mountain/NEAT MPS 41537
2001 11 17.29454 01 01 33.82 +15 58 35.9 19.1   644 – Palomar Mountain/NEAT MPS 41537
2001 11 17.31554 01 01 33.34 +15 58 27.9 19.1   644 – Palomar Mountain/NEAT MPS 41537
2001 11 20.14248 01 00 39.87 +15 40 53.7 19.3 R 699 – Lowell Observatory-LONEOS MPS 41537
2001 11 20.16611 01 00 39.36 +15 40 46.9   699 – Lowell Observatory-LONEOS MPS 41537
2001 11 20.18972 01 00 39.01 +15 40 38.7   699 – Lowell Observatory-LONEOS MPS 41537
